Home   Weather   Bad Kreuznach   Past weeks

Flag for Germany Past Weather in Bad Kreuznach, Rhineland-Palatinate, Germany — Yesterday and Last 2 Weeks

Now
46 °F

Clear.


Feels Like: 40 °F
Forecast: 43 / 55 °F
Wind: 12 mph from East

Location: Wiesbaden Airport

Current Time: Apr 30, 2017 at 3:27:37 am

Latest Report: Apr 30, 2017 at 2:58 am


Visibility: N/A

Pressure: 30.01 "Hg

Humidity: 52%

Dew Point: 29 °F

Location of Bad KreuznachLocation

Past Weather in Bad Kreuznach — Graph

°F

Bad Kreuznach Temperature Yesterday

Maximum temperature yesterday: 59 °F (at 4:58 pm)
Minimum temperature yesterday: 43 °F (at 2:58 am)
Average temperature yesterday: 50 °F

High & Low Weather Summary for the Past Weeks

 TemperatureHumidityPressure
High61 °F (Apr 24, 4:58 pm)96% (Apr 17, 8:58 am)30.63 "Hg (Apr 17, 8:58 am)
Low31 °F (Apr 24, 6:58 am)26% (Apr 20, 5:58 pm)29.71 "Hg (Apr 25, 4:58 am)
Average46 °F62%30.13 "Hg
* Reported Apr 15 1:58 am — Apr 30 1:58 am, Bad Kreuznach, Weather by CustomWeather, © 2017

Note: Actual official high and low records may vary slightly from our data, if they occured in-between our weather recording intervals... More about our weather records

Advertising

Bad Kreuznach Weather History for the Previous 24 Hours

Scroll right to see more
 ConditionsComfort  
Time TempWeatherWind HumidityBarometerVisibility
1:58 am
Sun, Apr 30
46 °FClear.13 mph53%30.01 "HgN/A
12:58 am48 °FClear.14 mph46%30.02 "HgN/A
11:58 pm
Sat, Apr 29
48 °FClear.12 mph50%30.02 "HgN/A
10:58 pm50 °FClear.8 mph45%30.02 "HgN/A
9:58 pm50 °FClear.No wind47%30.02 "HgN/A
8:58 pm53 °FClear.3 mph43%30.02 "HgN/A
7:58 pm55 °FSunny.No wind40%30.01 "HgN/A
6:58 pm57 °FSunny.No wind36%30.01 "HgN/A
5:58 pm57 °FPassing clouds.No wind36%30.02 "HgN/A
4:58 pm59 °FSunny.No wind34%30.03 "HgN/A
3:58 pm55 °FPassing clouds.No wind38%30.04 "HgN/A
2:58 pm57 °FScattered clouds.No wind36%30.05 "HgN/A
1:58 pm56 °FScattered clouds.3 mph36%30.05 "HgN/A
12:58 pm55 °FScattered clouds.8 mph41%30.06 "HgN/A
11:58 am54 °FSunny.12 mph44%30.07 "HgN/A
10:58 am50 °FSunny.No wind52%30.08 "HgN/A
9:58 am50 °FPassing clouds.5 mph53%30.08 "HgN/A
8:58 am46 °FSunny.5 mph71%30.09 "HgN/A
7:58 am45 °FSunny.No wind76%30.08 "HgN/A
6:58 am43 °FScattered clouds.3 mph81%30.07 "HgN/A
5:58 am43 °FPartly cloudy.No wind81%30.06 "HgN/A
4:58 am43 °FPassing clouds.3 mph81%30.05 "HgN/A
3:58 am43 °FOvercast.No wind81%30.05 "HgN/A
Weather by CustomWeather, © 2017

See weather overviewHow to use our weather pages